Location: Mahannah Oil Field
(37.4664°N, 96.6003°W)
Time: 08:25:46
(UTC+00:00)

Vanguard 3 - Pass Details

Date: 26 January 2021
Orbit: 508 x 3261 km, 33.3° (Epoch: 24 February)

Event Time Altitude Azimuth Distance (km) Brightness Sun altitude
Exits shadow 12:18:11 18° 265° (W) 2,723 9.2 -15.2°
Maximum altitude 12:24:48 67° 187° (S) 1,886 9.0 -13.9°
Drops below altitude 10° 12:39:23 10° 110° (ESE) 5,418 12.9 -11.1°
Sets 12:44:27 0° 108° (ESE) 6,761 14.2 -10.1°
